www.pogodaiklimat.ru

Погода и климат >> Архив погоды >> Эстония >> Вилсанди


ПОГОДА в Вилсанди

  • Прогноз погоды в Вилсанди
  • Монитор погоды в Вилсанди

АРХИВ ПОГОДЫ в Вилсанди

Время (UTC), дата Ветер
(напр.,м/с)
 
Видим.   Явления Облачность Т
(С)
Тd
(С)
f
(%)
Тe
(С)
Тes
(С)
Комфортность P
(гПа)
Po
(гПа)
Тmin
(С)
Tmax
(С)
R
(мм)
R24
(мм)
S
(см)
10 15.05 С 6 20 км н/о +10.9 +3.9 62 +8 +8 1030.2 1029.5
11 15.05 С 7 20 км н/о +10.6 +3.5 61 +7 +7 1029.8 1029.1
12 15.05 С 7-10
{11}
20 км ясно +10.5 +6.2 75 +7 +7 1029.7 1029.0 +6.2 +11.3
13 15.05 С 7 20 км н/о +10.8 +3.0 59 +8 +8 1029.3 1028.6
14 15.05 С 8 20 км н/о +10.7 +3.0 59 +7 +7 1029.0 1028.3
15 15.05 С 7-9
{11}
20 км ясно +10.3 +6.8 79 +7 +8 1028.9 1028.2 +6.8 +11.4
16 15.05 С 7 20 км н/о +10.1 +3.1 62 +7 +7 1028.5 1027.8
17 15.05 С 6 20 км н/о +10.2 +3.4 63 +7 +7 1028.3 1027.5
18 15.05 С 5-9
{10}
20 км ясно +9.0 +8.8 99 +6 +6 1028.4 1027.7 +8.8 +11.4
19 15.05 С 6 20 км н/о +8.0 +4.1 76 +4 +4 1028.5 1027.7
20 15.05 СВ 5 20 км н/о +8.1 +2.9 70 +5 +5 1028.8 1028.0
21 15.05 СВ 4
{10}
20 км 3/3
[]
+7.7 +7.6 99 +4 +4 1028.9 1028.2 +7.6 +11.4
22 15.05 СВ 4 20 км н/о +7.7 +3.4 74 +4 +4 1028.9 1028.2
23 15.05 СВ 4 20 км н/о +7.5 +3.6 76 +4 +4 1028.8 1028.1
00 16.05 СВ 4 20 км ясно +7.5 +7.3 99 +4 +4 1028.8 1028.1 +7.3 +11.4
01 16.05 СВ 4 20 км н/о +7.2 +3.9 80 +4 +4 1028.8 1028.1
02 16.05 СВ 4 20 км н/о +7.2 +4.0 80 +4 +4 1028.4 1027.7
03 16.05 СВ 4 20 км ясно +7.7 +6.8 94 +4 +5 1028.5 1027.8 +6.8 +10.6
04 16.05 В 4 20 км н/о +9.1 +2.8 65 +6 +6 1028.7 1027.9
05 16.05 В 4 20 км н/о +10.2 +1.7 56 +8 +8 1028.5 1027.8
06 16.05 В 4 20 км 3/0
[]
+12.1 +6.8 70 +10 +10 1028.8 1028.1 +6.8 +12.1
07 16.05 ЮВ 4 20 км н/о +13.9 +1.7 44 +13 +13 1029.0 1028.3
08 16.05 н/о
09 16.05 ЮВ 5
{9}
20 км ясно +15.6 +6.8 56 +15 +21 1028.6 1027.9 +6.8 +16.5
10 16.05 С 3 20 км н/о +15.0 +4.1 48 +14 +14 1028.4 1027.7
11 16.05 С 5 20 км н/о +14.3 +5.4 55 +13 +13 1028.0 1027.3
12 16.05 СВ 6
{8}
20 км 3/0
[]
+16.0 +6.8 54 +15 +15 1027.5 1026.8 +6.8 +17.2
13 16.05 С 6 20 км н/о +14.4 +3.6 48 +13 +13 1027.0 1026.3
14 16.05 С 7 20 км н/о +12.8 +5.0 59 +10 +10 1026.7 1026.0
15 16.05 С 8-10
{11}
20 км 3/0
[]
+12.8 +7.7 71 +10 +11 1026.3 1025.6 +7.7 +17.2
16 16.05 СВ 6 20 км н/о +13.8 +3.2 49 +12 +12 1026.0 1025.3
17 16.05 СВ 6 20 км н/о +12.7 +2.8 51 +10 +10 1025.9 1025.2
18 16.05 СВ 5
{10}
20 км 1/0
[]
+11.1 +11.1 100 +9 +9 1026.0 1025.3 +11.1 +17.2
19 16.05 СВ 3 20 км н/о +9.7 +4.2 69 +8 +8 1026.0 1025.3
20 16.05 СВ 4 20 км н/о +9.3 +4.1 70 +7 +7 1026.0 1025.2
21 16.05 СВ 4 20 км 3/0
[]
+9.1 +9.0 99 +6 +6 1025.9 1025.2 +9.0 +17.2
22 16.05 СВ 4 20 км н/о +8.7 +5.4 80 +6 +6 1025.8 1025.1
23 16.05 СВ 5 20 км н/о +8.7 +5.1 78 +5 +5 1025.5 1024.7
00 17.05 СВ 4 20 км 3/0
[]
+8.2 +8.1 99 +5 +5 1025.2 1024.5 +8.1 +16.0
01 17.05 СВ 4 20 км н/о +7.8 +5.3 84 +4 +4 1025.4 1024.7
02 17.05 СВ 4 20 км н/о +7.6 +5.2 85 +4 +4 1025.1 1024.4
03 17.05 СВ 4 20 км 8/0
[]
+8.3 +7.5 95 +5 +5 1025.0 1024.3 +7.5 +14.3
04 17.05 В 4 20 км н/о +9.5 +4.8 72 +7 +7 1024.9 1024.2
05 17.05 В 3 20 км н/о +10.9 +4.8 66 +9 +9 1024.8 1024.1
06 17.05 В 4 20 км 10/0
[]
+13.4 +7.5 67 +12 +14 1024.6 1000.5 +7.5 +13.4
07 17.05 СВ 4 20 км н/о +15.2 +4.7 49 +14 +14 1024.3 1023.6
08 17.05 н/о
09 17.05 В 6-10
{11}
20 км 10/0
[]
+18.3 +7.5 49 +18 +22 1023.1 1022.4 +7.5 +19.1
10 17.05 В 6 20 км н/о +19.4 +1.0 29 +19 +19 1022.8 1022.2
11 17.05 В 6 20 км н/о +20.0 +0.7 28 +20 +20 1022.4 1021.7
12 17.05 В 5-8
{10}
20 км 10/10
[]
+19.5 +7.5 46 +19 +25 1022.0 1021.3 +7.5 +20.8
13 17.05 ЮВ 6 20 км н/о +20.6 +1.2 27 +21 +21 комфорт 1021.7 1021.0
14 17.05 В 6 6000 м н/о +20.8 +2.3 29 +21 +21 комфорт 1021.4 1020.7
15 17.05 В 6-10
{11}
20 км {дымка} ясно +20.8 +8.3 45 +21 +23 комфорт 1020.7 1020.0 +8.3 +21.8
16 17.05 В 5 13 км н/о +20.9 +1.9 28 +21 +21 комфорт 1020.2 1019.5
17 17.05 В 4 20 км н/о +20.5 +2.2 30 +21 +21 комфорт 1019.8 1019.1
18 17.05 В 3
{10}
20 км 9/6
[Ac cuf Ci sp]
+19.4 +13.4 68 +20 +20 1019.7 1019.0 +13.4 +21.8
19 17.05 СВ 4 20 км н/о +15.6 +5.2 50 +15 +15 1020.0 1019.3
20 17.05 СВ 4 20 км н/о +14.8 +5.7 54 +14 +14 1019.9 1019.2
21 17.05 В 2 20 км 9/8
[Ac und Cc]
+16.2 +14.4 89 +16 +16 1019.9 1019.2 +14.4 +21.8
22 17.05 В 3 20 км н/о +16.8 +3.6 41 +17 +17 1019.9 1019.2
23 17.05 В 3 20 км н/о +15.9 +3.7 44 +16 +16 1019.9 1019.2
00 18.05 В 4 20 км 9/8
[Ac cuf Ci fib]
+15.6 +14.4 93 +15 +15 1019.7 1019.0 +14.4 +21.8
01 18.05 В 4 20 км н/о +14.9 +4.5 50 +14 +14 1019.5 1018.9
02 18.05 В 5 20 км н/о +14.2 +4.7 53 +13 +13 1019.3 1018.6
03 18.05 В 4
{9}
20 км 6/6
[Ac cuf]
+14.0 +13.9 99 +13 +13 1019.0 1018.3 +13.9 +21.3
04 18.05 В 4 20 км н/о +14.6 +5.5 54 +14 +14 1019.1 1018.4
05 18.05 В 5 20 км н/о +15.9 +5.6 50 +15 +15 1018.7 1018.0
06 18.05 В 5
{9}
20 км 10/8
[Ac und Cc]
+18.4 +13.9 75 +19 +19 1018.6 1001.2 +13.9 +19.4
07 18.05 ЮВ 4 20 км н/о +19.5 +6.8 44 +20 +20 1018.6 1017.9
08 18.05 н/о
09 18.05 ЮВ 5-9
{9}
20 км 10/1
[Ac und Cs]
+21.9 +13.9 60 +23 +28 комфорт 1018.0 1017.3 +13.9 +21.9
10 18.05 ЮВ 7 20 км н/о +22.7 +10.3 45 +25 +25 комфорт 1017.8 1017.2
11 18.05 ЮВ 6 20 км н/о +22.7 +10.3 45 +25 +25 комфорт 1017.6 1017.0
12 18.05 ЮВ 6-9
{10}
20 км 10/0
[]
+22.8 +13.9 57 +25 +25 комфорт 1017.2 1016.5 +13.9 +23.6
13 18.05 ЮВ 6 20 км н/о +23.1 +10.4 45 +25 +25 комфорт 1017.1 1016.4
14 18.05 ЮВ 6 20 км н/о +22.9 +10.0 44 +25 +25 комфорт 1016.4 1015.7
15 18.05 В 5-8
{10}
20 км ясно +23.8 +13.9 54 +24 +27 комфорт 1015.7 1015.0 +13.9 +24.5
16 18.05 В 5 20 км н/о +23.7 +4.8 29 +23 +23 комфорт 1015.2 1014.5
17 18.05 В 4 20 км н/о +22.7 +4.5 31 +23 +23 комфорт 1015.1 1014.4
18 18.05 В 4
{8}
20 км 10/3
[]
+21.7 +18.2 80 +22 +22 комфорт 1015.0 1014.4 +18.2 +24.5
19 18.05 В 3 20 км н/о +20.3 +4.4 35 +21 +21 комфорт 1015.1 1014.4
20 18.05 В 4 20 км н/о +19.3 +4.6 38 +20 +20 1015.1 1014.5
21 18.05 В 4 20 км 10/3
[]
+18.2 +18.1 99 +18 +18 1015.2 1014.5 +18.1 +24.5
22 18.05 В 5 20 км н/о +17.6 +5.5 45 +17 +17 1014.5 1013.9
23 18.05 ЮВ 4 20 км н/о +17.4 +6.1 47 +17 +17 1014.6 1013.9
00 19.05 В 4
{9}
20 км 10/9
[Ac As]
+16.8 +16.8 100 +16 +16 1014.5 1013.8 +16.8 +24.5
01 19.05 В 4 20 км н/о +16.1 +6.9 54 +15 +15 1014.4 1013.7
02 19.05 В 4 20 км н/о +16.0 +6.6 54 +15 +15 1014.2 1013.5
03 19.05 ЮВ 5 20 км ясно +15.3 +15.2 99 +14 +14 1014.0 1013.3 +15.2 +24.3
04 19.05 ЮВ 5 20 км н/о +15.5 +7.6 59 +14 +14 1014.1 1013.4
05 19.05 ЮВ 5 20 км н/о +16.2 +7.9 58 +15 +15 1014.1 1013.4
06 19.05 ЮВ 6
{8}
20 км 10/5
[Ac As Ci fib]
+17.7 +15.0 84 +17 +18 1013.9 1001.3 +15.0 +21.6
07 19.05 ЮВ 5 20 км н/о +19.5 +9.2 51 +20 +20 1014.1 1013.4
08 19.05 В 6 20 км н/о +19.9 +9.3 50 +21 +21 комфорт 1014.1 1013.5
09 19.05 В 5
{9}
20 км 10/3
[Ac As Ci ing]
+21.1 +15.0 68 +22 +27 комфорт 1014.3 1013.6 +15.0 +21.2
10 19.05 В 4 20 км н/о +21.8 +10.2 48 +24 +24 комфорт 1014.3 1013.7
11 19.05 ЮВ 5 20 км н/о +22.7 +9.4 43 +24 +24 комфорт 1014.2 1013.5
12 19.05 ЮВ 6
{8}
20 км 10/8
[Ac cuf Cs]
+23.7 +15.0 58 +25 +27 комфорт 1014.2 1013.5 +15.0 +24.5
13 19.05 ЮВ 6 20 км н/о +24.1 +9.7 40 +25 +25 комфорт 1014.1 1013.4
14 19.05 ЮВ 6 20 км н/о +23.6 +8.3 38 +24 +24 комфорт 1013.8 1013.1
15 19.05 ЮВ 5-8
{9}
20 км 10/6
[Ac cuf Cs]
+24.3 +15.0 56 +25 +26 комфорт 1013.6 1012.9 +15.0 +24.5
16 19.05 ЮВ 4 20 км н/о +23.8 +9.2 39 +25 +25 комфорт 1013.4 1012.7
17 19.05 ЮВ 3 20 км н/о +23.5 +8.8 39 +24 +24 комфорт 1013.1 1012.4
18 19.05 В 3
{9}
20 км 10/4
[Ac As Ci]
+22.3 +17.6 75 +23 +23 комфорт 1012.9 1012.3 +17.6 +24.5
19 19.05 В 3 20 км н/о +20.9 +7.7 43 +23 +23 комфорт 1013.0 1012.3
20 19.05 В 3 20 км н/о +19.9 +7.9 46 +21 +21 комфорт 1013.1 1012.4
21 19.05 В 4 20 км 10/6
[Ac As Ci sp]
+19.5 +19.2 98 +20 +20 1012.8 1012.2 +19.2 +24.5
22 19.05 ЮВ 4 20 км н/о +18.5 +8.6 52 +19 +19 1013.0 1012.3
23 19.05 В 4 20 км н/о +17.6 +8.2 54 +17 +17 1012.7 1012.0
00 20.05 ЮВ 4 20 км 10/4
[Ac cuf Cc]
+16.9 +16.7 99 +16 +16 1012.7 1012.0 +16.7 +24.5
01 20.05 ЮВ 4 20 км н/о +16.6 +9.7 64 +16 +16 1012.5 1011.8
02 20.05 ЮВ 4 20 км н/о +16.3 +9.6 65 +16 +16 1012.4 1011.8
03 20.05 ЮВ 4 20 км 9/1
[Ac cuf Cs]
+16.3 +16.2 99 +16 +16 1012.4 1011.8 +16.2 +24.4
04 20.05 ЮВ 4 20 км н/о +16.8 +10.1 65 +16 +16 1012.6 1011.9
05 20.05 ЮВ 6 20 км н/о +17.8 +10.9 64 +17 +17 1012.8 1012.2
06 20.05 ЮВ 5
{9}
20 км 9/3
[Ac cuf Cc]
+19.0 +16.1 83 +20 +21 1012.9 1001.3 +16.1 +22.3
07 20.05 ЮВ 5 20 км н/о +21.7 +12.1 54 +24 +24 комфорт 1012.9 1012.2
08 20.05 н/о
09 20.05 ЮВ 5
{8}
20 км 9/8
[Ac cuf Ci fib]
+21.3 +16.1 72 +24 +27 комфорт 1012.8 1012.2 +16.1 +21.9
10 20.05 ЮВ 6 20 км н/о +20.0 +12.6 62 +21 +21 комфорт 1012.8 1012.1
11 20.05 ЮВ 6 20 км н/о +22.4 +13.3 56 +25 +25 комфорт 1012.8 1012.1
12 20.05 ЮВ 7-10
{10}
20 км ясно +22.9 +16.1 66 +26 +26 жарко 1012.7 1012.0 +16.1 +23.6
13 20.05 ЮВ 3 20 км н/о +19.4 +13.3 68 +21 +21 комфорт 1012.6 1011.9
14 20.05 В 3 20 км н/о +22.1 +12.1 53 +24 +24 комфорт 1012.0 1011.3
15 20.05 ЮВ 4
{10}
20 км {ливн. осадки} 8/8
[Ac und Cc]
+24.0 +16.1 61 +26 +28 жарко 1011.5 1010.9 +16.1 +24.0
16 20.05 В 3 19 км н/о +23.2 +11.8 49 +26 +26 жарко 1011.1 1010.5
17 20.05 В 4 20 км н/о +24.1 +10.7 43 +25 +25 комфорт 1010.7 1010.0
18 20.05 ЮВ 3 20 км {ливн. осадки} 3/3
[]
+22.5 +18.8 80 +24 +25 комфорт 1010.7 1010.1 +18.8 +24.7
19 20.05 В 3 20 км н/о +20.8 +10.0 50 +23 +23 комфорт 1010.9 1010.2
20 20.05 В 4 20 км н/о +19.8 +9.9 53 +21 +21 комфорт 1010.8 1010.2
21 20.05 В 3 20 км 8/8
[Ac cuf]
+18.8 +18.6 99 +20 +20 1010.8 1010.2 +18.6 +24.7
22 20.05 ЮВ 4 20 км н/о +19.2 +11.4 61 +20 +20 1010.8 1010.1
23 20.05 ЮВ 4 20 км н/о +17.9 +12.1 69 +18 +18 1010.7 1010.0
00 21.05 ЮВ 5-9
{9}
20 км 1/0
[]
+18.1 +17.5 96 +18 +18 1010.8 1010.1 +17.5 +24.7
01 21.05 Ю 4
{9}
20 км н/о +17.3 +12.9 75 +17 +17 1010.8 1010.1 +17.2 +24.7
02 21.05 В 3 20 км н/о +16.1 +12.4 79 +16 +16 1010.5 1009.8
03 21.05 ЮВ 3 20 км 4/3 1500 м
[Ac und Cs]
+16.3 +15.6 96 +16 +16 1010.3 1009.6 +15.6 +24.7
04 21.05 ЮВ 4 20 км н/о +17.3 +13.4 78 +17 +17 1010.7 1010.0
05 21.05 ЮВ 5 20 км н/о +19.3 +12.9 66 +20 +20 1010.3 1009.6
06 21.05 ЮВ 6-8
{8}
20 км 10/0
[Ac As Ci fib]
+20.6 +15.6 73 +23 +24 комфорт 1010.6 1001.4 +15.6 +22.5
07 21.05 ЮВ 4 20 км н/о +20.1 +12.8 63 +22 +22 комфорт 1010.5 1009.9
08 21.05 н/о
09 21.05 В 5
{9}
20 км 10/8
[Ac cuf]
+21.5 +15.6 69 +24 +26 комфорт 1010.6 1009.9 +15.6 +21.5
10 21.05 В 5 20 км н/о +23.2 +11.8 49 +26 +26 жарко 1010.6 1010.0
11 21.05 ЮВ 4 20 км н/о +23.6 +13.1 52 +26 +26 жарко 1010.4 1009.8
12 21.05 С 2
{8}
20 км 9/0
[Ac As]
+17.5 +15.6 89 +18 +23 1010.5 1009.8 +15.6 +24.2
13 21.05 ЮЗ 2 20 км н/о +20.0 +12.5 62 +22 +22 комфорт 1010.6 1009.9
14 21.05 В 4 20 км н/о +24.8 +11.5 43 +26 +26 жарко 1010.0 1009.3
15 21.05 ЮВ 4
{8}
20 км 9/8
[Ac cuf Cs]
+23.9 +16.2 62 +26 +28 жарко 1009.8 1009.1 +16.2 +25.4
16 21.05 В 3 20 км н/о +23.8 +12.1 48 +26 +26 жарко 1009.4 1008.8
17 21.05 В 2 20 км н/о +24.4 +11.9 46 +26 +26 жарко 1009.4 1008.7
18 21.05 В 2 20 км 9/0
[Ac trans Ci fib]
+22.8 +16.2 66 +26 +26 жарко 1009.2 1008.5 +16.2 +25.4
19 21.05 СВ 2 20 км н/о +19.5 +12.6 64 +21 +21 комфорт 1009.6 1008.9
20 21.05 СВ 3 20 км н/о +17.7 +13.4 76 +18 +18 1009.8 1009.2
21 21.05 СВ 3 20 км 10/9
[Ac cuf Cs]
+17.5 +16.2 92 +18 +18 1009.7 1009.0 +16.2 +25.4
22 21.05 СВ 3 20 км н/о +16.3 +13.7 85 +16 +16 1009.5 1008.9
23 21.05 СВ 3 20 км н/о +16.3 +13.7 85 +16 +16 1009.2 1008.5
00 22.05 СВ 3 20 км 9/0
[Ac trans]
+15.7 +15.7 100 +15 +15 1008.7 1008.0 +15.7 +25.4
01 22.05 СВ 3 20 км н/о +15.6 +13.8 89 +15 +15 1008.8 1008.1
02 22.05 СВ 2 20 км н/о +15.5 +13.9 90 +15 +15 1008.6 1007.9
03 22.05 СВ 2 20 км слаб. дождь 9/8 1500 м
[Ac und Cs]
+15.4 +15.1 98 +15 +15 1008.5 1007.8 +15.1 +24.9
04 22.05 В 2 20 км н/о +17.2 +13.9 81 +18 +18 1008.6 1007.9
05 22.05 СВ 2 20 км н/о +18.3 +13.8 75 +19 +19 1008.6 1007.9
06 22.05 СВ 3 20 км ясно +19.9 +15.1 74 +22 +22 комфорт 1008.6 1007.9 +15.1 +22.8
07 22.05 С 1 20 км н/о +20.8 +14.7 68 +25 +25 комфорт 1008.6 1007.9
08 22.05 н/о
09 22.05 С 4 20 км {дымка} 4/0
[]
+20.2 +15.1 72 +23 +29 комфорт 1008.6 1007.9 +15.1 +22.0
10 22.05 С 4 20 км н/о +19.8 +14.2 70 +22 +22 комфорт 1008.5 1007.8

 

Местоположение метеостанции Вилсанди (Эстония): широта 58.38 долгота 21.82 высота над уровнем моря 6 м.

В архиве по умолчанию представлена погода в Вилсанди за последнюю неделю. Архивные данные за месяц целиком и за предыдущие месяцы, начиная с января 2011 года, Вы можете получить, выбрав интересующий диапазон дат из раскрывающегося списка и нажав кнопку "Ввод!".


*Определитесь, кто Вы:
робот инопланетянин человек

Внимание! Время в таблицах - всемирное. Для получения местного времени необходимо прибавить поправку, которая равна 2 ч.

Смотрите также архив погоды в соседних городах и на ближайших метеорологических станциях:

Погода в Сырве (Эстония) (53 км)
Погода в Ристне (Эстония) (62 км)
Погода в Колке (Латвия) (84 км)
Погода в Виртсу (Эстония) (101 км)
Погода на Рухну (Эстония) (104 км)
Погода в Вентспилсе (Латвия) (110 км)
Погода на Кихну (Эстония) (130 км)
Погода в Нигуле (Эстония) (132 км)
Погода в Мерсрагсе (Латвия) (138 км)
Погода в Стенде (Латвия) (140 км)

Пояснения к столбцам:

Ветер - указаны скорость ветра в м/с - средняя за 10 мин, порывы в срок и между сроками (в фигурных скобках) и направление, откуда дует ветер: С - северный, СВ - северо-восточный, В - восточный, ЮВ - юго-восточный, Ю - южный, ЮЗ - юго-западный, З - западный, СЗ - северо-западный.
Видимость - горизонтальная дальность видимости в метрах или километрах. При видимости от 1 до 10 км при отсутствии осадков обычно наблюдается дымка, при ухудшении видимости до 1 км и менее - туман. В сухую погоду видимость может ухудшаться дымом, пылью или мглою.
Явления - указаны атмосферные явления, наблюдавшиеся в срок или в последний час перед сроком; фигурными скобками обозначены явления, наблюдавшиеся между сроками (за 1-3 часа до срока); квадратными скобками обозначены град или гололедные отложения с указанием их диаметра в мм.
Облачность - указаны через наклонную черту общая и нижняя облачность в баллах и высота нижней границы облаков в метрах; квадратными скобками обозначены формы облаков: Ci - перистые, Cs - перисто-слоистые, Cc - перисто-кучевые, Ac - высококучевые, As - высокослоистые, Sc - слоисто-кучевые, Ns - слоисто-дождевые, Cu - кучевые, Cb - кучево-дождевые. Подробнее классификацию облаков см. в Атласе облаков (PDF).
T - Температура воздуха - температура, измеренная на высоте 2 м над землей.
Td - Температура точки росы - температура, при понижении до которой содержащийся в воздухе водяной пар достигнет насыщения.
f - Относительная влажность воздуха - влажноcть воздуха, измеренная на высоте 2 м над землей.
Te - Эффективная температура - температура, которую ощущает одетый по сезону человек в тени. Характеристика душности погоды. При расчете учитывается влияние влажности воздуха и скорости ветра на теплоощущения человека.
Tes - Эффективная температура на солнце - температура, которую ощущает человек, с поправкой на солнечный нагрев. Характеристика знойности погоды. Зависит от высоты солнца над горизонтом, облачности и скорости ветра. Ночью, в пасмурную погоду, а также при ветре 12 м/с и более поправка равна нулю.
P - Атмосферное давление - приведенное к уровню моря атмосферное давление.
Po - Атмосферное давление - измеренное на уровне метеостанции атмосферное давление.
Tmin - Минимальная температура - минимум температуры воздуха на высоте 2 м над землей.
Tmax - Максимальная температура - максимум температуры воздуха на высоте 2 м над землей.
R - Количество осадков - Количество выпавших осадков за период времени, мм. При наведении курсора мыши на число - период времени, за который выпало указанное количество осадков.
R24 - Количество осадков - Количество выпавших осадков за 24 часа, мм.
S - Снежный покров - Высота снежного покрова, см. При наведении курсора мыши на число - состояние снежного покрова и степень покрытия местности в баллах.